#datetime,building,power
2023-08-02T00:00:00,atd,16.19
2023-08-02T00:01:00,atd,25.98
2023-08-02T00:02:00,atd,16.55
2023-08-02T00:03:00,atd,18.60
2023-08-02T00:04:00,atd,18.39
2023-08-02T00:05:00,atd,16.26
2023-08-02T00:06:00,atd,19.56
2023-08-02T00:07:00,atd,16.32
2023-08-02T00:08:00,atd,17.84
2023-08-02T00:09:00,atd,18.00
2023-08-02T00:10:00,atd,19.65
2023-08-02T00:11:00,atd,20.62
2023-08-02T00:12:00,atd,19.41
2023-08-02T00:13:00,atd,22.22
2023-08-02T00:14:00,atd,20.68
2023-08-02T00:15:00,atd,20.72
2023-08-02T00:16:00,atd,17.85
2023-08-02T00:17:00,atd,18.83
2023-08-02T00:18:00,atd,17.79
2023-08-02T00:19:00,atd,18.15
2023-08-02T00:20:00,atd,29.88
2023-08-02T00:21:00,atd,17.90
2023-08-02T00:22:00,atd,18.22
2023-08-02T00:23:00,atd,19.11
2023-08-02T00:24:00,atd,18.51
2023-08-02T00:25:00,atd,18.43
2023-08-02T00:26:00,atd,16.30
2023-08-02T00:27:00,atd,17.70
2023-08-02T00:28:00,atd,16.85
2023-08-02T00:29:00,atd,19.99
2023-08-02T00:30:00,atd,19.84
2023-08-02T00:31:00,atd,16.25
2023-08-02T00:32:00,atd,15.17
2023-08-02T00:33:00,atd,19.76
2023-08-02T00:34:00,atd,19.07
2023-08-02T00:35:00,atd,19.89
2023-08-02T00:36:00,atd,19.54
2023-08-02T00:37:00,atd,17.96
2023-08-02T00:38:00,atd,16.26
2023-08-02T00:39:00,atd,26.70
2023-08-02T00:40:00,atd,16.51
2023-08-02T00:41:00,atd,18.87
2023-08-02T00:42:00,atd,32.22
2023-08-02T00:43:00,atd,18.26
2023-08-02T00:44:00,atd,19.93
2023-08-02T00:45:00,atd,20.92
2023-08-02T00:46:00,atd,22.16
2023-08-02T00:47:00,atd,20.04
2023-08-02T00:48:00,atd,19.86
2023-08-02T00:49:00,atd,17.42
2023-08-02T00:50:00,atd,18.36
2023-08-02T00:51:00,atd,20.83
2023-08-02T00:52:00,atd,20.80
2023-08-02T00:53:00,atd,20.51
2023-08-02T00:54:00,atd,21.60
2023-08-02T00:55:00,atd,18.59
2023-08-02T00:56:00,atd,20.41
2023-08-02T00:57:00,atd,17.33
2023-08-02T00:58:00,atd,33.14
2023-08-02T00:59:00,atd,20.81
2023-08-02T01:00:00,atd,19.74
2023-08-02T01:01:00,atd,18.87
2023-08-02T01:02:00,atd,17.24
2023-08-02T01:03:00,atd,23.68
2023-08-02T01:04:00,atd,25.74
2023-08-02T01:05:00,atd,26.34
2023-08-02T01:06:00,atd,15.47
2023-08-02T01:07:00,atd,18.04
2023-08-02T01:08:00,atd,17.62
2023-08-02T01:09:00,atd,18.73
2023-08-02T01:10:00,atd,21.21
2023-08-02T01:11:00,atd,21.88
2023-08-02T01:12:00,atd,17.81
2023-08-02T01:13:00,atd,18.95
2023-08-02T01:14:00,atd,22.57
2023-08-02T01:15:00,atd,21.67
2023-08-02T01:16:00,atd,20.51
2023-08-02T01:17:00,atd,23.62
2023-08-02T01:18:00,atd,22.58
2023-08-02T01:19:00,atd,20.31
2023-08-02T01:20:00,atd,22.59
2023-08-02T01:21:00,atd,19.43
2023-08-02T01:22:00,atd,19.92
2023-08-02T01:23:00,atd,19.54
2023-08-02T01:24:00,atd,18.65
2023-08-02T01:25:00,atd,17.99
2023-08-02T01:26:00,atd,17.99
2023-08-02T01:27:00,atd,19.89
2023-08-02T01:28:00,atd,19.85
2023-08-02T01:29:00,atd,18.80
2023-08-02T01:30:00,atd,20.02
2023-08-02T01:31:00,atd,18.83
2023-08-02T01:32:00,atd,19.85
2023-08-02T01:33:00,atd,20.35
2023-08-02T01:34:00,atd,19.45
2023-08-02T01:35:00,atd,21.66
2023-08-02T01:36:00,atd,20.15
2023-08-02T01:37:00,atd,32.05
2023-08-02T01:38:00,atd,17.79
2023-08-02T01:39:00,atd,16.65
2023-08-02T01:40:00,atd,15.83
2023-08-02T01:41:00,atd,18.04
2023-08-02T01:42:00,atd,16.81
2023-08-02T01:43:00,atd,18.44
2023-08-02T01:44:00,atd,16.94
2023-08-02T01:45:00,atd,19.05
2023-08-02T01:46:00,atd,18.90
2023-08-02T01:47:00,atd,18.87
2023-08-02T01:48:00,atd,18.28
2023-08-02T01:49:00,atd,17.21
2023-08-02T01:50:00,atd,20.23
2023-08-02T01:51:00,atd,15.94
2023-08-02T01:52:00,atd,16.27
2023-08-02T01:53:00,atd,17.20
2023-08-02T01:54:00,atd,19.80
2023-08-02T01:55:00,atd,19.58
2023-08-02T01:56:00,atd,41.04
2023-08-02T01:57:00,atd,28.04
2023-08-02T01:58:00,atd,32.98
2023-08-02T01:59:00,atd,31.79
2023-08-02T02:00:00,atd,32.05
2023-08-02T02:01:00,atd,28.42
2023-08-02T02:02:00,atd,18.66
2023-08-02T02:03:00,atd,22.95
2023-08-02T02:04:00,atd,24.34
2023-08-02T02:05:00,atd,22.97
2023-08-02T02:06:00,atd,23.27
2023-08-02T02:07:00,atd,28.47
2023-08-02T02:08:00,atd,27.36
2023-08-02T02:09:00,atd,29.48
2023-08-02T02:10:00,atd,25.71
2023-08-02T02:11:00,atd,24.29
2023-08-02T02:12:00,atd,25.31
2023-08-02T02:13:00,atd,25.67
2023-08-02T02:14:00,atd,26.29
2023-08-02T02:15:00,atd,22.60
2023-08-02T02:16:00,atd,21.57
2023-08-02T02:17:00,atd,23.30
2023-08-02T02:18:00,atd,20.44
2023-08-02T02:19:00,atd,20.09
2023-08-02T02:20:00,atd,19.58
2023-08-02T02:21:00,atd,24.04
2023-08-02T02:22:00,atd,25.32
2023-08-02T02:23:00,atd,23.24
2023-08-02T02:24:00,atd,17.88
2023-08-02T02:25:00,atd,20.91
2023-08-02T02:26:00,atd,20.39
2023-08-02T02:27:00,atd,19.48
2023-08-02T02:28:00,atd,18.94
2023-08-02T02:29:00,atd,21.25
2023-08-02T02:30:00,atd,24.38
2023-08-02T02:31:00,atd,21.61
2023-08-02T02:32:00,atd,24.54
2023-08-02T02:33:00,atd,23.56
2023-08-02T02:34:00,atd,21.18
2023-08-02T02:35:00,atd,34.49
2023-08-02T02:36:00,atd,17.95
2023-08-02T02:37:00,atd,17.49
2023-08-02T02:38:00,atd,20.05
2023-08-02T02:39:00,atd,21.75
2023-08-02T02:40:00,atd,20.21
2023-08-02T02:41:00,atd,25.08
2023-08-02T02:42:00,atd,20.85
2023-08-02T02:43:00,atd,24.17
2023-08-02T02:44:00,atd,24.47
2023-08-02T02:45:00,atd,23.01
2023-08-02T02:46:00,atd,22.05
2023-08-02T02:47:00,atd,18.84
2023-08-02T02:48:00,atd,18.64
2023-08-02T02:49:00,atd,16.32
2023-08-02T02:50:00,atd,19.57
2023-08-02T02:51:00,atd,20.19
2023-08-02T02:52:00,atd,17.84
2023-08-02T02:53:00,atd,19.61
2023-08-02T02:54:00,atd,27.20
2023-08-02T02:55:00,atd,16.68
2023-08-02T02:56:00,atd,19.34
2023-08-02T02:57:00,atd,20.81
2023-08-02T02:58:00,atd,19.28
2023-08-02T02:59:00,atd,21.96
2023-08-02T03:00:00,atd,19.33
2023-08-02T03:01:00,atd,17.55
2023-08-02T03:02:00,atd,15.67
2023-08-02T03:03:00,atd,15.72
2023-08-02T03:04:00,atd,15.71
2023-08-02T03:05:00,atd,17.60
2023-08-02T03:06:00,atd,18.81
2023-08-02T03:07:00,atd,16.17
2023-08-02T03:08:00,atd,17.43
2023-08-02T03:09:00,atd,17.10
2023-08-02T03:10:00,atd,16.17
2023-08-02T03:11:00,atd,19.03
2023-08-02T03:12:00,atd,19.79
2023-08-02T03:13:00,atd,18.51
2023-08-02T03:14:00,atd,17.50
2023-08-02T03:15:00,atd,15.90
2023-08-02T03:16:00,atd,19.78
2023-08-02T03:17:00,atd,16.37
2023-08-02T03:18:00,atd,17.05
2023-08-02T03:19:00,atd,18.26
2023-08-02T03:20:00,atd,19.73
2023-08-02T03:21:00,atd,19.99
2023-08-02T03:22:00,atd,19.79
2023-08-02T03:23:00,atd,16.91
2023-08-02T03:24:00,atd,19.38
2023-08-02T03:25:00,atd,16.80
2023-08-02T03:26:00,atd,17.86
2023-08-02T03:27:00,atd,18.01
2023-08-02T03:28:00,atd,18.72
2023-08-02T03:29:00,atd,20.62
2023-08-02T03:30:00,atd,19.99
2023-08-02T03:31:00,atd,20.76
2023-08-02T03:32:00,atd,22.44
2023-08-02T03:33:00,atd,15.89
2023-08-02T03:34:00,atd,27.39
2023-08-02T03:35:00,atd,15.43
2023-08-02T03:36:00,atd,19.44
2023-08-02T03:37:00,atd,16.72
2023-08-02T03:38:00,atd,17.65
2023-08-02T03:39:00,atd,16.95
2023-08-02T03:40:00,atd,14.81
2023-08-02T03:41:00,atd,16.41
2023-08-02T03:42:00,atd,15.74
2023-08-02T03:43:00,atd,17.85
2023-08-02T03:44:00,atd,21.63
2023-08-02T03:45:00,atd,19.59
2023-08-02T03:46:00,atd,19.61
2023-08-02T03:47:00,atd,21.85
2023-08-02T03:48:00,atd,18.82
2023-08-02T03:49:00,atd,16.64
2023-08-02T03:50:00,atd,17.96
2023-08-02T03:51:00,atd,18.08
2023-08-02T03:52:00,atd,16.97
2023-08-02T03:53:00,atd,14.82
2023-08-02T03:54:00,atd,28.98
2023-08-02T03:55:00,atd,15.34
2023-08-02T03:56:00,atd,17.07
2023-08-02T03:57:00,atd,15.71
2023-08-02T03:58:00,atd,18.86
2023-08-02T03:59:00,atd,17.54
2023-08-02T04:00:00,atd,23.87
2023-08-02T04:01:00,atd,21.13
2023-08-02T04:02:00,atd,24.53
2023-08-02T04:03:00,atd,22.53
2023-08-02T04:04:00,atd,21.07
2023-08-02T04:05:00,atd,21.04
2023-08-02T04:06:00,atd,21.03
2023-08-02T04:07:00,atd,20.50
2023-08-02T04:08:00,atd,16.32
2023-08-02T04:09:00,atd,20.24
2023-08-02T04:10:00,atd,17.75
2023-08-02T04:11:00,atd,18.34
2023-08-02T04:12:00,atd,15.85
2023-08-02T04:13:00,atd,19.40
2023-08-02T04:14:00,atd,14.74
2023-08-02T04:15:00,atd,14.78
2023-08-02T04:16:00,atd,21.48
2023-08-02T04:17:00,atd,18.47
2023-08-02T04:18:00,atd,18.71
2023-08-02T04:19:00,atd,19.16
2023-08-02T04:20:00,atd,18.49
2023-08-02T04:21:00,atd,15.83
2023-08-02T04:22:00,atd,15.84
2023-08-02T04:23:00,atd,20.92
2023-08-02T04:24:00,atd,18.97
2023-08-02T04:25:00,atd,21.32
2023-08-02T04:26:00,atd,21.25
2023-08-02T04:27:00,atd,22.61
2023-08-02T04:28:00,atd,19.69
2023-08-02T04:29:00,atd,20.61
2023-08-02T04:30:00,atd,23.33
2023-08-02T04:31:00,atd,23.94
2023-08-02T04:32:00,atd,30.97
2023-08-02T04:33:00,atd,27.09
2023-08-02T04:34:00,atd,28.41
2023-08-02T04:35:00,atd,27.07
2023-08-02T04:36:00,atd,19.53
2023-08-02T04:37:00,atd,21.44
2023-08-02T04:38:00,atd,17.85
2023-08-02T04:39:00,atd,17.41
2023-08-02T04:40:00,atd,19.67
2023-08-02T04:41:00,atd,18.49
2023-08-02T04:42:00,atd,18.73
2023-08-02T04:43:00,atd,18.76
2023-08-02T04:44:00,atd,17.82
2023-08-02T04:45:00,atd,16.85
2023-08-02T04:46:00,atd,17.29
2023-08-02T04:47:00,atd,16.72
2023-08-02T04:48:00,atd,22.82
2023-08-02T04:49:00,atd,17.41
2023-08-02T04:50:00,atd,19.13
2023-08-02T04:51:00,atd,19.22
2023-08-02T04:52:00,atd,19.64
2023-08-02T04:53:00,atd,17.12
2023-08-02T04:54:00,atd,14.87
2023-08-02T04:55:00,atd,17.78
2023-08-02T04:56:00,atd,15.98
2023-08-02T04:57:00,atd,17.08
2023-08-02T04:58:00,atd,19.10
2023-08-02T04:59:00,atd,21.41
2023-08-02T05:00:00,atd,19.58
2023-08-02T05:01:00,atd,17.91
2023-08-02T05:02:00,atd,19.40
2023-08-02T05:03:00,atd,18.73
2023-08-02T05:04:00,atd,20.83
2023-08-02T05:05:00,atd,19.14
2023-08-02T05:06:00,atd,19.29
2023-08-02T05:07:00,atd,19.66
2023-08-02T05:08:00,atd,21.40
2023-08-02T05:09:00,atd,17.03
2023-08-02T05:10:00,atd,16.69
2023-08-02T05:11:00,atd,19.34
2023-08-02T05:12:00,atd,29.61
2023-08-02T05:13:00,atd,18.20
2023-08-02T05:14:00,atd,19.45
2023-08-02T05:15:00,atd,20.54
2023-08-02T05:16:00,atd,20.06
2023-08-02T05:17:00,atd,18.59
2023-08-02T05:18:00,atd,19.18
2023-08-02T05:19:00,atd,20.91
2023-08-02T05:20:00,atd,18.78
2023-08-02T05:21:00,atd,19.39
2023-08-02T05:22:00,atd,19.91
2023-08-02T05:23:00,atd,18.94
2023-08-02T05:24:00,atd,20.86
2023-08-02T05:25:00,atd,19.98
2023-08-02T05:26:00,atd,17.27
2023-08-02T05:27:00,atd,18.80
2023-08-02T05:28:00,atd,21.16
2023-08-02T05:29:00,atd,32.42
2023-08-02T05:30:00,atd,32.61
2023-08-02T05:31:00,atd,46.15
2023-08-02T05:32:00,atd,39.52
2023-08-02T05:33:00,atd,37.62
2023-08-02T05:34:00,atd,30.41
2023-08-02T05:35:00,atd,31.19
2023-08-02T05:36:00,atd,29.14
2023-08-02T05:37:00,atd,32.96
2023-08-02T05:38:00,atd,31.06
2023-08-02T05:39:00,atd,33.68
2023-08-02T05:40:00,atd,29.07
2023-08-02T05:41:00,atd,31.35
2023-08-02T05:42:00,atd,27.05
2023-08-02T05:43:00,atd,27.13
2023-08-02T05:44:00,atd,29.21
2023-08-02T05:45:00,atd,28.95
2023-08-02T05:46:00,atd,27.64
2023-08-02T05:47:00,atd,27.77
2023-08-02T05:48:00,atd,25.70
2023-08-02T05:49:00,atd,29.82
2023-08-02T05:50:00,atd,39.33
2023-08-02T05:51:00,atd,27.30
2023-08-02T05:52:00,atd,26.76
2023-08-02T05:53:00,atd,29.56
2023-08-02T05:54:00,atd,31.12
2023-08-02T05:55:00,atd,26.69
2023-08-02T05:56:00,atd,27.45
2023-08-02T05:57:00,atd,30.11
2023-08-02T05:58:00,atd,27.89
2023-08-02T05:59:00,atd,25.48
2023-08-02T06:00:00,atd,27.01
2023-08-02T06:01:00,atd,23.71
2023-08-02T06:02:00,atd,24.37
2023-08-02T06:03:00,atd,25.91
2023-08-02T06:04:00,atd,26.94
2023-08-02T06:05:00,atd,26.51
2023-08-02T06:06:00,atd,25.73
2023-08-02T06:07:00,atd,26.02
2023-08-02T06:08:00,atd,25.50
2023-08-02T06:09:00,atd,26.33
2023-08-02T06:10:00,atd,25.06
2023-08-02T06:11:00,atd,25.64
2023-08-02T06:12:00,atd,26.39
2023-08-02T06:13:00,atd,23.79
2023-08-02T06:14:00,atd,27.52
2023-08-02T06:15:00,atd,23.72
2023-08-02T06:16:00,atd,22.54
2023-08-02T06:17:00,atd,23.67
2023-08-02T06:18:00,atd,22.11
2023-08-02T06:19:00,atd,22.83
2023-08-02T06:20:00,atd,25.21
2023-08-02T06:21:00,atd,23.05
2023-08-02T06:22:00,atd,24.17
2023-08-02T06:23:00,atd,19.93
2023-08-02T06:24:00,atd,30.56
2023-08-02T06:25:00,atd,22.01
2023-08-02T06:26:00,atd,25.16
2023-08-02T06:27:00,atd,23.31
2023-08-02T06:28:00,atd,22.55
2023-08-02T06:29:00,atd,24.10
2023-08-02T06:30:00,atd,23.77
2023-08-02T06:31:00,atd,21.15
2023-08-02T06:32:00,atd,20.02
2023-08-02T06:33:00,atd,19.61
2023-08-02T06:34:00,atd,18.25
2023-08-02T06:35:00,atd,21.07
2023-08-02T06:36:00,atd,22.10
2023-08-02T06:37:00,atd,22.80
2023-08-02T06:38:00,atd,21.69
2023-08-02T06:39:00,atd,20.78
2023-08-02T06:40:00,atd,20.13
2023-08-02T06:41:00,atd,21.70
2023-08-02T06:42:00,atd,31.02
2023-08-02T06:43:00,atd,29.56
2023-08-02T06:44:00,atd,27.94
2023-08-02T06:45:00,atd,29.50
2023-08-02T06:46:00,atd,25.70
2023-08-02T06:47:00,atd,25.78
2023-08-02T06:48:00,atd,21.96
2023-08-02T06:49:00,atd,25.12
2023-08-02T06:50:00,atd,20.43
2023-08-02T06:51:00,atd,21.23
2023-08-02T06:52:00,atd,21.65
2023-08-02T06:53:00,atd,21.26
2023-08-02T06:54:00,atd,21.03
2023-08-02T06:55:00,atd,21.59
2023-08-02T06:56:00,atd,20.75
2023-08-02T06:57:00,atd,19.73
2023-08-02T06:58:00,atd,35.11
2023-08-02T06:59:00,atd,26.46
2023-08-02T07:00:00,atd,25.06
2023-08-02T07:01:00,atd,26.46
2023-08-02T07:02:00,atd,23.78
2023-08-02T07:03:00,atd,22.97
2023-08-02T07:04:00,atd,22.85
2023-08-02T07:05:00,atd,22.58
2023-08-02T07:06:00,atd,22.61
2023-08-02T07:07:00,atd,25.08
2023-08-02T07:08:00,atd,29.04
2023-08-02T07:09:00,atd,27.09
2023-08-02T07:10:00,atd,24.97
2023-08-02T07:11:00,atd,31.89
2023-08-02T07:12:00,atd,31.55
2023-08-02T07:13:00,atd,31.25
2023-08-02T07:14:00,atd,30.29
2023-08-02T07:15:00,atd,33.39
2023-08-02T07:16:00,atd,32.43
2023-08-02T07:17:00,atd,33.56
2023-08-02T07:18:00,atd,40.09
2023-08-02T07:19:00,atd,37.17
2023-08-02T07:20:00,atd,32.85
2023-08-02T07:21:00,atd,30.75
2023-08-02T07:22:00,atd,31.91
2023-08-02T07:23:00,atd,28.58
2023-08-02T07:24:00,atd,29.85
2023-08-02T07:25:00,atd,30.92
2023-08-02T07:26:00,atd,30.77
2023-08-02T07:27:00,atd,28.21
2023-08-02T07:28:00,atd,30.59
2023-08-02T07:29:00,atd,28.84
2023-08-02T07:30:00,atd,29.80
2023-08-02T07:31:00,atd,31.68
2023-08-02T07:32:00,atd,33.51
2023-08-02T07:33:00,atd,34.01
2023-08-02T07:34:00,atd,33.14
2023-08-02T07:35:00,atd,32.39
2023-08-02T07:36:00,atd,36.26
2023-08-02T07:37:00,atd,35.40
2023-08-02T07:38:00,atd,39.94
2023-08-02T07:39:00,atd,38.56
2023-08-02T07:40:00,atd,67.42
2023-08-02T07:41:00,atd,65.95
2023-08-02T07:42:00,atd,69.60
2023-08-02T07:43:00,atd,70.65
2023-08-02T07:44:00,atd,69.92
2023-08-02T07:45:00,atd,37.61
2023-08-02T07:46:00,atd,34.30
2023-08-02T07:47:00,atd,33.28
2023-08-02T07:48:00,atd,49.56
2023-08-02T07:49:00,atd,45.60
2023-08-02T07:50:00,atd,45.43
2023-08-02T07:51:00,atd,43.70
2023-08-02T07:52:00,atd,43.22
2023-08-02T07:53:00,atd,34.32
2023-08-02T07:54:00,atd,32.14
2023-08-02T07:55:00,atd,36.13
2023-08-02T07:56:00,atd,38.52
2023-08-02T07:57:00,atd,34.91
2023-08-02T07:58:00,atd,38.77
2023-08-02T07:59:00,atd,34.70
2023-08-02T08:00:00,atd,41.57
2023-08-02T08:01:00,atd,36.82
2023-08-02T08:02:00,atd,38.63
2023-08-02T08:03:00,atd,39.58
2023-08-02T08:04:00,atd,39.33
2023-08-02T08:05:00,atd,50.61
2023-08-02T08:06:00,atd,41.64
2023-08-02T08:07:00,atd,39.47
2023-08-02T08:08:00,atd,38.95
2023-08-02T08:09:00,atd,39.59
2023-08-02T08:10:00,atd,41.07
2023-08-02T08:11:00,atd,39.95
2023-08-02T08:12:00,atd,36.44
2023-08-02T08:13:00,atd,39.58
2023-08-02T08:14:00,atd,75.65
2023-08-02T08:15:00,atd,82.40
2023-08-02T08:16:00,atd,85.71
2023-08-02T08:17:00,atd,85.99
2023-08-02T08:18:00,atd,35.93
2023-08-02T08:19:00,atd,36.82
2023-08-02T08:20:00,atd,36.06
2023-08-02T08:21:00,atd,38.74
2023-08-02T08:22:00,atd,47.79
2023-08-02T08:23:00,atd,37.70
2023-08-02T08:24:00,atd,34.53
2023-08-02T08:25:00,atd,39.03
2023-08-02T08:26:00,atd,35.45
2023-08-02T08:27:00,atd,36.37
2023-08-02T08:28:00,atd,38.62
2023-08-02T08:29:00,atd,37.01
2023-08-02T08:30:00,atd,40.67
2023-08-02T08:31:00,atd,41.12
2023-08-02T08:32:00,atd,84.94
2023-08-02T08:33:00,atd,79.47
2023-08-02T08:34:00,atd,81.33
2023-08-02T08:35:00,atd,81.90
2023-08-02T08:36:00,atd,78.23
2023-08-02T08:37:00,atd,35.01
2023-08-02T08:38:00,atd,34.27
2023-08-02T08:39:00,atd,46.38
2023-08-02T08:40:00,atd,34.17
2023-08-02T08:41:00,atd,34.06
2023-08-02T08:42:00,atd,34.15
2023-08-02T08:43:00,atd,39.09
2023-08-02T08:44:00,atd,38.66
2023-08-02T08:45:00,atd,40.18
2023-08-02T08:46:00,atd,41.33
2023-08-02T08:47:00,atd,85.31
2023-08-02T08:48:00,atd,85.03
2023-08-02T08:49:00,atd,82.53
2023-08-02T08:50:00,atd,85.63
2023-08-02T08:51:00,atd,72.42
2023-08-02T08:52:00,atd,74.01
2023-08-02T08:53:00,atd,38.58
2023-08-02T08:54:00,atd,37.42
2023-08-02T08:55:00,atd,38.60
2023-08-02T08:56:00,atd,39.59
2023-08-02T08:57:00,atd,40.77
2023-08-02T08:58:00,atd,41.21
2023-08-02T08:59:00,atd,50.41
2023-08-02T09:00:00,atd,47.31
2023-08-02T09:01:00,atd,46.03
2023-08-02T09:02:00,atd,84.01
2023-08-02T09:03:00,atd,89.19
2023-08-02T09:04:00,atd,91.78
2023-08-02T09:05:00,atd,84.23
2023-08-02T09:06:00,atd,81.30
2023-08-02T09:07:00,atd,82.86
2023-08-02T09:08:00,atd,84.04
2023-08-02T09:09:00,atd,85.40
2023-08-02T09:10:00,atd,42.79
2023-08-02T09:11:00,atd,38.86
2023-08-02T09:12:00,atd,42.02
2023-08-02T09:13:00,atd,42.31
2023-08-02T09:14:00,atd,44.93
2023-08-02T09:15:00,atd,44.36
2023-08-02T09:16:00,atd,43.66
2023-08-02T09:17:00,atd,43.83
2023-08-02T09:18:00,atd,76.67
2023-08-02T09:19:00,atd,79.41
2023-08-02T09:20:00,atd,79.45
2023-08-02T09:21:00,atd,77.55
2023-08-02T09:22:00,atd,75.73
2023-08-02T09:23:00,atd,74.98
2023-08-02T09:24:00,atd,77.90
2023-08-02T09:25:00,atd,79.43
2023-08-02T09:26:00,atd,76.76
2023-08-02T09:27:00,atd,78.88
2023-08-02T09:28:00,atd,40.44
2023-08-02T09:29:00,atd,51.97
2023-08-02T09:30:00,atd,40.76
2023-08-02T09:31:00,atd,37.26
2023-08-02T09:32:00,atd,41.46
2023-08-02T09:33:00,atd,44.15
2023-08-02T09:34:00,atd,38.75
2023-08-02T09:35:00,atd,40.90
2023-08-02T09:36:00,atd,40.97
2023-08-02T09:37:00,atd,78.89
2023-08-02T09:38:00,atd,82.02
2023-08-02T09:39:00,atd,80.38
2023-08-02T09:40:00,atd,80.45
2023-08-02T09:41:00,atd,76.41
2023-08-02T09:42:00,atd,78.27
2023-08-02T09:43:00,atd,79.10
2023-08-02T09:44:00,atd,79.37
2023-08-02T09:45:00,atd,81.98
2023-08-02T09:46:00,atd,84.04
2023-08-02T09:47:00,atd,35.83
2023-08-02T09:48:00,atd,40.75
2023-08-02T09:49:00,atd,38.76
2023-08-02T09:50:00,atd,39.02
2023-08-02T09:51:00,atd,39.43
2023-08-02T09:52:00,atd,41.28
2023-08-02T09:53:00,atd,37.84
2023-08-02T09:54:00,atd,66.84
2023-08-02T09:55:00,atd,72.02
2023-08-02T09:56:00,atd,72.97
2023-08-02T09:57:00,atd,75.73
2023-08-02T09:58:00,atd,74.49
2023-08-02T09:59:00,atd,76.26
2023-08-02T10:00:00,atd,78.42
2023-08-02T10:01:00,atd,76.60
2023-08-02T10:02:00,atd,79.89
2023-08-02T10:03:00,atd,81.75
2023-08-02T10:04:00,atd,83.00
2023-08-02T10:05:00,atd,81.94
2023-08-02T10:06:00,atd,83.88
2023-08-02T10:07:00,atd,43.45
2023-08-02T10:08:00,atd,45.58
2023-08-02T10:09:00,atd,41.83
2023-08-02T10:10:00,atd,42.85
2023-08-02T10:11:00,atd,41.13
2023-08-02T10:12:00,atd,43.42
2023-08-02T10:13:00,atd,86.35
2023-08-02T10:14:00,atd,87.50
2023-08-02T10:15:00,atd,89.25
2023-08-02T10:16:00,atd,88.40
2023-08-02T10:17:00,atd,83.64
2023-08-02T10:18:00,atd,99.84
2023-08-02T10:19:00,atd,91.46
2023-08-02T10:20:00,atd,93.14
2023-08-02T10:21:00,atd,92.59
2023-08-02T10:22:00,atd,92.12
2023-08-02T10:23:00,atd,45.57
2023-08-02T10:24:00,atd,45.38
2023-08-02T10:25:00,atd,43.98
2023-08-02T10:26:00,atd,39.74
2023-08-02T10:27:00,atd,40.81
2023-08-02T10:28:00,atd,44.53
2023-08-02T10:29:00,atd,77.55
2023-08-02T10:30:00,atd,76.96
2023-08-02T10:31:00,atd,74.88
2023-08-02T10:32:00,atd,76.59
2023-08-02T10:33:00,atd,75.57
2023-08-02T10:34:00,atd,75.09
2023-08-02T10:35:00,atd,86.67
2023-08-02T10:36:00,atd,73.56
2023-08-02T10:37:00,atd,78.28
2023-08-02T10:38:00,atd,84.48
2023-08-02T10:39:00,atd,86.92
2023-08-02T10:40:00,atd,84.07
2023-08-02T10:41:00,atd,44.54
2023-08-02T10:42:00,atd,42.17
2023-08-02T10:43:00,atd,40.24
2023-08-02T10:44:00,atd,39.38
2023-08-02T10:45:00,atd,52.10
2023-08-02T10:46:00,atd,52.96
2023-08-02T10:47:00,atd,91.79
2023-08-02T10:48:00,atd,99.42
2023-08-02T10:49:00,atd,88.09
2023-08-02T10:50:00,atd,84.03
2023-08-02T10:51:00,atd,84.59
2023-08-02T10:52:00,atd,85.03
2023-08-02T10:53:00,atd,89.57
2023-08-02T10:54:00,atd,87.98
2023-08-02T10:55:00,atd,93.53
2023-08-02T10:56:00,atd,86.30
2023-08-02T10:57:00,atd,90.46
2023-08-02T10:58:00,atd,87.01
2023-08-02T10:59:00,atd,81.81
2023-08-02T11:00:00,atd,42.18
2023-08-02T11:01:00,atd,49.08
2023-08-02T11:02:00,atd,46.77
2023-08-02T11:03:00,atd,47.09
2023-08-02T11:04:00,atd,47.18
2023-08-02T11:05:00,atd,39.02
2023-08-02T11:06:00,atd,38.47
2023-08-02T11:07:00,atd,72.38
2023-08-02T11:08:00,atd,86.55
2023-08-02T11:09:00,atd,74.93
2023-08-02T11:10:00,atd,76.69
2023-08-02T11:11:00,atd,77.55
2023-08-02T11:12:00,atd,80.70
2023-08-02T11:13:00,atd,79.57
2023-08-02T11:14:00,atd,78.36
2023-08-02T11:15:00,atd,79.33
2023-08-02T11:16:00,atd,77.51
2023-08-02T11:17:00,atd,77.76
2023-08-02T11:18:00,atd,80.85
2023-08-02T11:19:00,atd,79.13
2023-08-02T11:20:00,atd,80.71
2023-08-02T11:21:00,atd,78.06
2023-08-02T11:22:00,atd,77.30
2023-08-02T11:23:00,atd,78.12
2023-08-02T11:24:00,atd,77.37
2023-08-02T11:25:00,atd,80.16
2023-08-02T11:26:00,atd,90.75
2023-08-02T11:27:00,atd,48.50
2023-08-02T11:28:00,atd,48.28
2023-08-02T11:29:00,atd,50.57
2023-08-02T11:30:00,atd,48.85
2023-08-02T11:31:00,atd,47.41
2023-08-02T11:32:00,atd,47.54
2023-08-02T11:33:00,atd,93.52
2023-08-02T11:34:00,atd,89.41
2023-08-02T11:35:00,atd,85.42
2023-08-02T11:36:00,atd,86.39
2023-08-02T11:37:00,atd,88.14
2023-08-02T11:38:00,atd,115.70
2023-08-02T11:39:00,atd,121.76
2023-08-02T11:40:00,atd,127.87
2023-08-02T11:41:00,atd,88.59
2023-08-02T11:42:00,atd,96.08
2023-08-02T11:43:00,atd,85.06
2023-08-02T11:44:00,atd,91.85
2023-08-02T11:45:00,atd,43.36
2023-08-02T11:46:00,atd,42.70
2023-08-02T11:47:00,atd,44.40
2023-08-02T11:48:00,atd,40.87
2023-08-02T11:49:00,atd,40.86
2023-08-02T11:50:00,atd,40.38
2023-08-02T11:51:00,atd,86.50
2023-08-02T11:52:00,atd,87.01
2023-08-02T11:53:00,atd,89.53
2023-08-02T11:54:00,atd,89.76
2023-08-02T11:55:00,atd,87.80
2023-08-02T11:56:00,atd,88.10
2023-08-02T11:57:00,atd,90.93
2023-08-02T11:58:00,atd,101.86
2023-08-02T11:59:00,atd,91.31
2023-08-02T12:00:00,atd,92.78
2023-08-02T12:01:00,atd,106.50
2023-08-02T12:02:00,atd,109.85
2023-08-02T12:03:00,atd,106.93
2023-08-02T12:04:00,atd,96.84
2023-08-02T12:05:00,atd,43.41
2023-08-02T12:06:00,atd,42.66
2023-08-02T12:07:00,atd,41.31
2023-08-02T12:08:00,atd,70.19
2023-08-02T12:09:00,atd,77.57
2023-08-02T12:10:00,atd,80.57
2023-08-02T12:11:00,atd,82.16
2023-08-02T12:12:00,atd,82.83
2023-08-02T12:13:00,atd,83.88
2023-08-02T12:14:00,atd,86.29
2023-08-02T12:15:00,atd,85.63
2023-08-02T12:16:00,atd,114.25
2023-08-02T12:17:00,atd,108.09
2023-08-02T12:18:00,atd,102.53
2023-08-02T12:19:00,atd,100.64
2023-08-02T12:20:00,atd,108.05
2023-08-02T12:21:00,atd,96.92
2023-08-02T12:22:00,atd,87.16
2023-08-02T12:23:00,atd,82.73
2023-08-02T12:24:00,atd,77.96
2023-08-02T12:25:00,atd,78.79
2023-08-02T12:26:00,atd,78.17
2023-08-02T12:27:00,atd,75.27
2023-08-02T12:28:00,atd,77.64
2023-08-02T12:29:00,atd,83.54
2023-08-02T12:30:00,atd,85.45
2023-08-02T12:31:00,atd,81.74
2023-08-02T12:32:00,atd,83.71
2023-08-02T12:33:00,atd,106.30
2023-08-02T12:34:00,atd,103.17
2023-08-02T12:35:00,atd,105.92
2023-08-02T12:36:00,atd,92.48
2023-08-02T12:37:00,atd,90.35
2023-08-02T12:38:00,atd,84.98
2023-08-02T12:39:00,atd,85.54
2023-08-02T12:40:00,atd,82.87
2023-08-02T12:41:00,atd,88.01
2023-08-02T12:42:00,atd,86.67
2023-08-02T12:43:00,atd,81.81
2023-08-02T12:44:00,atd,80.81
2023-08-02T12:45:00,atd,78.93
2023-08-02T12:46:00,atd,78.76
2023-08-02T12:47:00,atd,78.43
2023-08-02T12:48:00,atd,76.52
2023-08-02T12:49:00,atd,81.14
2023-08-02T12:50:00,atd,77.71
2023-08-02T12:51:00,atd,78.70
2023-08-02T12:52:00,atd,79.40
2023-08-02T12:53:00,atd,79.15
2023-08-02T12:54:00,atd,76.50
2023-08-02T12:55:00,atd,78.07
2023-08-02T12:56:00,atd,81.45
2023-08-02T12:57:00,atd,78.81
2023-08-02T12:58:00,atd,76.20
2023-08-02T12:59:00,atd,41.16
2023-08-02T13:00:00,atd,38.22
2023-08-02T13:01:00,atd,42.10
2023-08-02T13:02:00,atd,41.57
2023-08-02T13:03:00,atd,42.82
2023-08-02T13:04:00,atd,42.73
2023-08-02T13:05:00,atd,91.80
2023-08-02T13:06:00,atd,100.22
2023-08-02T13:07:00,atd,88.50
2023-08-02T13:08:00,atd,86.69
2023-08-02T13:09:00,atd,88.81
2023-08-02T13:10:00,atd,114.20
2023-08-02T13:11:00,atd,121.87
2023-08-02T13:12:00,atd,130.08
2023-08-02T13:13:00,atd,128.88
2023-08-02T13:14:00,atd,87.84
2023-08-02T13:15:00,atd,40.78
2023-08-02T13:16:00,atd,44.15
2023-08-02T13:17:00,atd,38.90